Regional Weather Roundup
Issued by NWS

Home | Current Version | Previous Version | Graphics & Text | Print | Product List | Glossary On
Versions: 1 2 3 4 5 6 7 8 9 10 11 12 13 14 15 16 17 18 19 20 21 22 23 24 25 26 27 28 29 30 31 32 33 34 35 36 37 38 39 40 41 42 43 44 45 46 47 48 49 50
000
ASUS43 KLSX 010359
RWRMO

WEATHER SUMMARY FOR MISSOURI
NATIONAL WEATHER SERVICE SPRINGFIELD MO
1100 PM CDT FRI JUL 31 2015

NOTE: "FAIR" INDICATES FEW OR NO CLOUDS BELOW 12,000 FEET WITH NO
       SIGNIFICANT WEATHER AND/OR OBSTRUCTIONS TO VISIBILITY.
       CURRENT SKY AND/OR WEATHER CONDITIONS ARE NOT AVAILABLE FOR
       CHILLICOTHE AND FARMINGTON.

MOZ001>031-035>038-043-044-053-054-010500-
...NORTHERN AND WESTERN MISSOURI...

CITY           SKY/WX    TMP DP  RH WIND       PRES   REMARKS
KANSAS CTY INT PTCLDY    77  67  71 W6        30.07S
KANSAS C DTWN  CLEAR     80  69  69 CALM      30.05S
LEE`S SUMMIT   CLEAR     77  65  66 CALM      30.08S
ST JOSEPH      CLOUDY    81  73  76 CALM      30.08R
CHILLICOTHE      N/A     81  72  74 CALM      30.07R
KIRKSVILLE     MOCLDY    74  70  87 N8        30.08R

$$
MOZ066>068-077>081-088>096-101>105-010500-
...SOUTHWEST MISSOURI...

CITY           SKY/WX    TMP DP  RH WIND       PRES   REMARKS
SPRINGFIELD    CLEAR     72  60  66 S3        30.11R
JOPLIN         CLEAR     73  59  61 CALM      30.11R

$$
MOZ032>034-039>042-045>050-055>058-069>072-010500-
...CENTRAL MISSOURI...

CITY           SKY/WX    TMP DP  RH WIND       PRES   REMARKS
COLUMBIA       CLEAR     76  68  76 NW3       30.08R
JEFFERSON CITY CLEAR     74  68  81 CALM      30.06R
ROLLA          CLEAR     69  63  81 SW5       30.09R
SEDALIA        CLEAR     76  65  68 SW6       30.09R
WARRENSBURG    CLEAR     73  66  78 CALM      30.08R
OSAGE BEACH    CLEAR     72  66  83 CALM      30.10R

$$
MOZ051-052-059>065-010500-
...EAST CENTRAL MISSOURI...

CITY           SKY/WX    TMP DP  RH WIND       PRES   REMARKS
ST LOUIS INTL  PTCLDY    81  65  58 CALM      30.06R
SPIRIT OF STL  CLEAR     74  69  85 CALM      30.05R
ST CHARLES     CLEAR     76  71  85 CALM      30.04R

$$
MOZ072>076-082>087-097>100-106>115-010500-
...SOUTH CENTRAL AND SOUTHEAST MISSOURI...

CITY           SKY/WX    TMP DP  RH WIND       PRES   REMARKS
CAPE GIRARDEAU CLEAR     72  70  93 SW3       30.05R
FARMINGTON     CLEAR     70  66  88 CALM      30.12R
POPLAR BLUFF   CLEAR     74  71  91 CALM      30.05R
WEST PLAINS    CLEAR     71  63  75 CALM      30.12S

$$



USA.gov is the U.S. government's official web portal to all federal, state and local government web resources and services.